• In Hungary
  • List of Countries
  • For 7 days
  • Water Temperature
  • Satellite Maps
  • Weather Map
  • News
  • Weather Widgets
  • user-avatar
    Login

    Hourly Weather Kōriyama

    Today, 18 July, Wednesday

    Time Temperature Precipitation Wind Pressure Humidity
    00:00 +29°C° 0 mm 3 mps 666 mmHg 18%
    01:00 +28°C° 0 mm 3 mps 666 mmHg 19%
    02:00 +28°C° 0 mm 3 mps 665 mmHg 20%
    03:00 +27°C° 0 mm 2 mps 665 mmHg 22%
    04:00 +27°C° 0 mm 2 mps 665 mmHg 23%
    05:00 +26°C° 0 mm 2 mps 665 mmHg 24%
    06:00 +26°C° 0 mm 2 mps 665 mmHg 25%
    07:00 +28°C° 0 mm 3 mps 666 mmHg 23%
    08:00 +30°C° 0 mm 3 mps 666 mmHg 21%
    09:00 +33°C° 0 mm 4 mps 667 mmHg 20%
    10:00 +34°C° 0 mm 4 mps 667 mmHg 18%
    11:00 +35°C° 0 mm 3 mps 667 mmHg 16%
    12:00 +36°C° 0 mm 3 mps 667 mmHg 14%
    13:00 +37°C° 0 mm 3 mps 667 mmHg 13%
    14:00 +38°C° 0 mm 4 mps 667 mmHg 11%
    15:00 +38°C° 0 mm 4 mps 666 mmHg 10%
    16:00 +38°C° 0 mm 4 mps 666 mmHg 9%
    17:00 +38°C° 0 mm 4 mps 666 mmHg 9%
    18:00 +39°C° 0 mm 5 mps 666 mmHg 9%
    19:00 +36°C° 0 mm 4 mps 666 mmHg 10%
    20:00 +34°C° 0 mm 4 mps 666 mmHg 11%
    21:00 +33°C° 0 mm 3 mps 666 mmHg 12%
    22:00 +31°C° 0 mm 3 mps 666 mmHg 14%
    23:00 +30°C° 0 mm 3 mps 666 mmHg 17%

    Tomorrow, 19 July, Thursday

    Time Temperature Precipitation Wind Pressure Humidity
    00:00 +29°C° 0 mm 3 mps 666 mmHg 19%
    01:00 +28°C° 0 mm 2 mps 666 mmHg 22%
    02:00 +28°C° 0 mm 2 mps 666 mmHg 24%
    03:00 +27°C° 0 mm 2 mps 665 mmHg 26%
    04:00 +27°C° 0 mm 2 mps 665 mmHg 27%
    05:00 +26°C° 0 mm 2 mps 665 mmHg 29%
    06:00 +26°C° 0 mm 2 mps 666 mmHg 30%
    07:00 +28°C° 0 mm 2 mps 666 mmHg 27%
    08:00 +30°C° 0 mm 2 mps 666 mmHg 24%
    09:00 +31°C° 0 mm 2 mps 667 mmHg 21%
    10:00 +34°C° 0 mm 2 mps 667 mmHg 19%
    11:00 +35°C° 0 mm 3 mps 667 mmHg 17%
    12:00 +36°C° 0 mm 3 mps 667 mmHg 14%
    13:00 +37°C° 0 mm 4 mps 667 mmHg 13%
    14:00 +39°C° 0 mm 5 mps 667 mmHg 12%
    15:00 +39°C° 0 mm 6 mps 667 mmHg 12%
    16:00 +39°C° 0 mm 6 mps 667 mmHg 12%
    17:00 +38°C° 0 mm 6 mps 666 mmHg 12%
    18:00 +38°C° 0 mm 7 mps 666 mmHg 13%
    19:00 +35°C° 0 mm 7 mps 666 mmHg 16%
    20:00 +34°C° 0 mm 6 mps 666 mmHg 19%
    21:00 +32°C° 0 mm 6 mps 666 mmHg 22%
    22:00 +30°C° 0 mm 5 mps 666 mmHg 26%
    23:00 +29°C° 0 mm 5 mps 666 mmHg 31%

    Day after tomorrow, 20 July, Friday

    Time Temperature Precipitation Wind Pressure Humidity
    00:00 +28°C° 0 mm 4 mps 666 mmHg 35%
    01:00 +27°C° 0 mm 3 mps 666 mmHg 38%
    02:00 +26°C° 0 mm 3 mps 666 mmHg 42%
    03:00 +25°C° 0 mm 2 mps 665 mmHg 46%
    04:00 +25°C° 0 mm 2 mps 665 mmHg 49%
    05:00 +24°C° 0 mm 2 mps 665 mmHg 52%
    06:00 +24°C° 0 mm 2 mps 665 mmHg 55%
    07:00 +25°C° 0 mm 2 mps 666 mmHg 49%
    08:00 +26°C° 0 mm 2 mps 666 mmHg 44%
    09:00 +28°C° 0 mm 2 mps 666 mmHg 39%
    10:00 +29°C° 0 mm 2 mps 667 mmHg 33%
    11:00 +31°C° 0 mm 3 mps 667 mmHg 27%
    12:00 +33°C° 0 mm 3 mps 667 mmHg 22%
    13:00 +34°C° 0 mm 3 mps 667 mmHg 20%
    14:00 +35°C° 0 mm 3 mps 667 mmHg 19%
    15:00 +36°C° 0 mm 4 mps 666 mmHg 17%
    16:00 +36°C° 0 mm 4 mps 666 mmHg 17%
    17:00 +36°C° 0 mm 4 mps 666 mmHg 17%
    18:00 +36°C° 0 mm 3 mps 666 mmHg 17%
    19:00 +34°C° 0 mm 3 mps 666 mmHg 18%
    20:00 +33°C° 0 mm 3 mps 666 mmHg 20%
    21:00 +31°C° 0 mm 2 mps 666 mmHg 22%
    22:00 +30°C° 0 mm 3 mps 666 mmHg 26%
    23:00 +30°C° 0 mm 3 mps 666 mmHg 30%

    21 July, Saturday

    Time Temperature Precipitation Wind Pressure Humidity
    00:00 +29°C° 0 mm 4 mps 666 mmHg 34%
    01:00 +28°C° 0 mm 3 mps 666 mmHg 38%
    02:00 +27°C° 0 mm 3 mps 666 mmHg 41%
    03:00 +27°C° 0 mm 2 mps 665 mmHg 45%
    04:00 +26°C° 0 mm 2 mps 665 mmHg 46%
    05:00 +26°C° 0 mm 2 mps 665 mmHg 48%
    06:00 +25°C° 0 mm 2 mps 665 mmHg 50%
    07:00 +27°C° 0 mm 2 mps 666 mmHg 44%
    08:00 +28°C° 0 mm 2 mps 666 mmHg 39%
    09:00 +30°C° 0 mm 2 mps 667 mmHg 33%
    10:00 +31°C° 0 mm 2 mps 667 mmHg 30%
    11:00 +34°C° 0 mm 2 mps 667 mmHg 26%
    12:00 +34°C° 0 mm 1 mps 667 mmHg 22%
    13:00 +35°C° 0 mm 1 mps 667 mmHg 20%
    14:00 +36°C° 0 mm 2 mps 667 mmHg 19%
    15:00 +37°C° 0 mm 2 mps 666 mmHg 17%
    16:00 +37°C° 0 mm 2 mps 666 mmHg 16%
    17:00 +37°C° 0 mm 2 mps 666 mmHg 16%
    18:00 +37°C° 0 mm 2 mps 666 mmHg 16%
    19:00 +36°C° 0 mm 2 mps 666 mmHg 17%
    20:00 +35°C° 0 mm 2 mps 666 mmHg 18%
    21:00 +34°C° 0 mm 2 mps 666 mmHg 19%
    22:00 +32°C° 0 mm 2 mps 666 mmHg 20%
    23:00 +31°C° 0 mm 2 mps 666 mmHg 22%

    22 July, Sunday

    Time Temperature Precipitation Wind Pressure Humidity
    00:00 +31°C° 0 mm 2 mps 666 mmHg 24%
    01:00 +30°C° 0 mm 2 mps 665 mmHg 26%
    02:00 +29°C° 0 mm 2 mps 665 mmHg 27%
    03:00 +28°C° 0 mm 2 mps 665 mmHg 29%
    04:00 +28°C° 0 mm 2 mps 665 mmHg 31%
    05:00 +27°C° 0 mm 2 mps 665 mmHg 33%
    06:00 +27°C° 0 mm 2 mps 665 mmHg 35%
    07:00 +29°C° 0 mm 3 mps 666 mmHg 32%
    08:00 +30°C° 0 mm 3 mps 666 mmHg 29%
    09:00 +33°C° 0 mm 4 mps 666 mmHg 25%
    10:00 +34°C° 0 mm 3 mps 666 mmHg 23%
    11:00 +35°C° 0 mm 2 mps 666 mmHg 20%
    12:00 +36°C° 0 mm 2 mps 666 mmHg 18%
    13:00 +37°C° 0 mm 2 mps 666 mmHg 17%
    14:00 +37°C° 0 mm 2 mps 666 mmHg 16%
    15:00 +38°C° 0 mm 2 mps 665 mmHg 15%
    16:00 +37°C° 0 mm 2 mps 665 mmHg 15%
    17:00 +37°C° 0 mm 2 mps 665 mmHg 15%
    18:00 +37°C° 0 mm 2 mps 665 mmHg 15%
    19:00 +36°C° 0 mm 2 mps 665 mmHg 17%
    20:00 +35°C° 0 mm 2 mps 665 mmHg 18%
    21:00 +34°C° 0 mm 2 mps 665 mmHg 19%
    22:00 +33°C° 0 mm 3 mps 665 mmHg 21%
    23:00 +33°C° 0 mm 3 mps 665 mmHg 23%

    23 July, Monday

    Time Temperature Precipitation Wind Pressure Humidity
    00:00 +31°C° 0 mm 3 mps 665 mmHg 24%
    01:00 +30°C° 0 mm 3 mps 665 mmHg 25%
    02:00 +30°C° 0 mm 3 mps 665 mmHg 26%
    03:00 +29°C° 0 mm 2 mps 664 mmHg 27%
    04:00 +29°C° 0 mm 2 mps 665 mmHg 29%
    05:00 +28°C° 0 mm 2 mps 665 mmHg 30%
    06:00 +28°C° 0 mm 2 mps 665 mmHg 32%
    07:00 +29°C° 0 mm 3 mps 665 mmHg 30%
    08:00 +31°C° 0 mm 3 mps 666 mmHg 27%
    09:00 +34°C° 0 mm 4 mps 666 mmHg 25%
    10:00 +35°C° 0 mm 3 mps 666 mmHg 23%
    11:00 +36°C° 0 mm 3 mps 666 mmHg 20%
    12:00 +37°C° 0 mm 2 mps 666 mmHg 17%
    13:00 +38°C° 0 mm 3 mps 666 mmHg 16%
    14:00 +38°C° 0 mm 3 mps 666 mmHg 15%
    15:00 +39°C° 0 mm 3 mps 665 mmHg 14%
    16:00 +39°C° 0 mm 3 mps 665 mmHg 14%
    17:00 +38°C° 0 mm 4 mps 665 mmHg 14%
    18:00 +38°C° 0 mm 4 mps 665 mmHg 13%
    19:00 +37°C° 0 mm 4 mps 665 mmHg 14%
    20:00 +36°C° 0 mm 3 mps 665 mmHg 14%
    21:00 +34°C° 0 mm 3 mps 665 mmHg 15%
    22:00 +33°C° 0 mm 3 mps 665 mmHg 16%
    23:00 +33°C° 0 mm 3 mps 665 mmHg 16%
    Show more